Year,Month,Day,Hour,Minute,Value (Times are PST for temperature in C)
2018,10,16,00,00,6.00
2018,10,16,00,01,6.00
2018,10,16,00,02,5.90
2018,10,16,00,03,5.90
2018,10,16,00,04,5.90
2018,10,16,00,05,5.80
2018,10,16,00,06,5.80
2018,10,16,00,07,5.80
2018,10,16,00,08,5.70
2018,10,16,00,09,5.70
2018,10,16,00,10,5.70
2018,10,16,00,11,5.70
2018,10,16,00,12,5.70
2018,10,16,00,13,5.60
2018,10,16,00,14,5.60
2018,10,16,00,15,5.60
2018,10,16,00,16,5.60
2018,10,16,00,17,5.50
2018,10,16,00,18,5.50
2018,10,16,00,19,5.50
2018,10,16,00,20,5.50
2018,10,16,00,21,5.50
2018,10,16,00,22,5.50
2018,10,16,00,23,5.50
2018,10,16,00,24,5.50
2018,10,16,00,25,5.50
2018,10,16,00,26,5.50
2018,10,16,00,27,5.50
2018,10,16,00,28,5.50
2018,10,16,00,29,5.50
2018,10,16,00,30,5.60
2018,10,16,00,31,5.60
2018,10,16,00,32,5.60
2018,10,16,00,33,5.60
2018,10,16,00,34,5.60
2018,10,16,00,35,5.60
2018,10,16,00,36,5.60
2018,10,16,00,37,5.60
2018,10,16,00,38,5.60
2018,10,16,00,39,5.60
2018,10,16,00,40,5.60
2018,10,16,00,41,5.60
2018,10,16,00,42,5.60
2018,10,16,00,43,5.60
2018,10,16,00,44,5.60
2018,10,16,00,45,5.60
2018,10,16,00,46,5.60
2018,10,16,00,47,5.60
2018,10,16,00,48,5.50
2018,10,16,00,49,5.50
2018,10,16,00,50,5.50
2018,10,16,00,51,5.50
2018,10,16,00,52,5.50
2018,10,16,00,53,5.40
2018,10,16,00,54,5.40
2018,10,16,00,55,5.40
2018,10,16,00,56,5.40
2018,10,16,00,57,5.40
2018,10,16,00,58,5.40
2018,10,16,00,59,5.30
2018,10,16,01,00,5.30
2018,10,16,01,01,5.30
2018,10,16,01,02,5.30
2018,10,16,01,03,5.30
2018,10,16,01,04,5.20
2018,10,16,01,05,5.20
2018,10,16,01,06,5.20
2018,10,16,01,07,5.20
2018,10,16,01,08,5.20
2018,10,16,01,09,5.20
2018,10,16,01,10,5.20
2018,10,16,01,11,5.10
2018,10,16,01,12,5.10
2018,10,16,01,13,5.10
2018,10,16,01,14,5.10
2018,10,16,01,15,5.00
2018,10,16,01,16,5.00
2018,10,16,01,17,4.90
2018,10,16,01,18,4.90
2018,10,16,01,19,4.90
2018,10,16,01,20,4.80
2018,10,16,01,21,4.80
2018,10,16,01,22,4.80
2018,10,16,01,23,4.80
2018,10,16,01,24,4.80
2018,10,16,01,25,4.80
2018,10,16,01,26,4.80
2018,10,16,01,27,4.80
2018,10,16,01,28,4.80
2018,10,16,01,29,4.80
2018,10,16,01,30,4.90
2018,10,16,01,31,4.80
2018,10,16,01,32,4.90
2018,10,16,01,33,4.90
2018,10,16,01,34,4.80
2018,10,16,01,35,4.80
2018,10,16,01,36,4.80
2018,10,16,01,37,4.80
2018,10,16,01,38,4.80
2018,10,16,01,39,4.90
2018,10,16,01,40,4.90
2018,10,16,01,41,4.90
2018,10,16,01,42,5.00
2018,10,16,01,43,5.00
2018,10,16,01,44,5.00
2018,10,16,01,45,5.00
2018,10,16,01,46,5.10
2018,10,16,01,47,5.10
2018,10,16,01,48,5.10
2018,10,16,01,49,5.10
2018,10,16,01,50,5.10
2018,10,16,01,51,5.00
2018,10,16,01,52,5.00
2018,10,16,01,53,5.00
2018,10,16,01,54,5.00
2018,10,16,01,55,5.00
2018,10,16,01,56,5.00
2018,10,16,01,57,5.00
2018,10,16,01,58,5.00
2018,10,16,01,59,5.00
2018,10,16,02,00,5.00
2018,10,16,02,01,5.00
2018,10,16,02,02,5.00
2018,10,16,02,03,5.00
2018,10,16,02,04,4.90
2018,10,16,02,05,4.90
2018,10,16,02,06,4.90
2018,10,16,02,07,4.90
2018,10,16,02,08,4.90
2018,10,16,02,09,4.90
2018,10,16,02,10,4.80
2018,10,16,02,11,4.80
2018,10,16,02,12,4.80
2018,10,16,02,13,4.80
2018,10,16,02,14,4.70
2018,10,16,02,15,4.70
2018,10,16,02,16,4.70
2018,10,16,02,17,4.70
2018,10,16,02,18,4.60
2018,10,16,02,19,4.60
2018,10,16,02,20,4.60
2018,10,16,02,21,4.50
2018,10,16,02,22,4.50
2018,10,16,02,23,4.50
2018,10,16,02,24,4.50
2018,10,16,02,25,4.40
2018,10,16,02,26,4.40
2018,10,16,02,27,4.40
2018,10,16,02,28,4.40
2018,10,16,02,29,4.30
2018,10,16,02,30,4.30
2018,10,16,02,31,4.30
2018,10,16,02,32,4.20
2018,10,16,02,33,4.20
2018,10,16,02,34,4.20
2018,10,16,02,35,4.10
2018,10,16,02,36,4.10
2018,10,16,02,37,4.10
2018,10,16,02,38,4.10
2018,10,16,02,39,4.00
2018,10,16,02,40,4.00
2018,10,16,02,41,4.00
2018,10,16,02,42,4.00
2018,10,16,02,43,4.00
2018,10,16,02,44,3.90
2018,10,16,02,45,3.90
2018,10,16,02,46,3.90
2018,10,16,02,47,3.90
2018,10,16,02,48,3.90
2018,10,16,02,49,3.90
2018,10,16,02,50,3.90
2018,10,16,02,51,3.90
2018,10,16,02,52,3.90
2018,10,16,02,53,3.90
2018,10,16,02,54,3.90
2018,10,16,02,55,3.90
2018,10,16,02,56,3.90
2018,10,16,02,57,3.90
2018,10,16,02,58,3.90
2018,10,16,02,59,3.90
2018,10,16,03,00,3.90
2018,10,16,03,01,3.90
2018,10,16,03,02,4.00
2018,10,16,03,03,4.00
2018,10,16,03,04,4.00
2018,10,16,03,05,4.10
2018,10,16,03,06,4.10
2018,10,16,03,07,4.10
2018,10,16,03,08,4.10
2018,10,16,03,09,4.10
2018,10,16,03,10,4.10
2018,10,16,03,11,4.10
2018,10,16,03,12,4.00
2018,10,16,03,13,4.00
2018,10,16,03,14,4.00
2018,10,16,03,15,3.90
2018,10,16,03,16,3.90
2018,10,16,03,17,3.90
2018,10,16,03,18,3.90
2018,10,16,03,19,3.90
2018,10,16,03,20,3.90
2018,10,16,03,21,3.90
2018,10,16,03,22,3.80
2018,10,16,03,23,3.80
2018,10,16,03,24,3.80
2018,10,16,03,25,3.80
2018,10,16,03,26,3.80
2018,10,16,03,27,3.70
2018,10,16,03,28,3.70
2018,10,16,03,29,3.70
2018,10,16,03,30,3.70
2018,10,16,03,31,3.70
2018,10,16,03,32,3.70
2018,10,16,03,33,3.70
2018,10,16,03,34,3.60
2018,10,16,03,35,3.60
2018,10,16,03,36,3.60
2018,10,16,03,37,3.60
2018,10,16,03,38,3.60
2018,10,16,03,39,3.60
2018,10,16,03,40,3.60
2018,10,16,03,41,3.60
2018,10,16,03,42,3.60
2018,10,16,03,43,3.60
2018,10,16,03,44,3.60
2018,10,16,03,45,3.60
2018,10,16,03,46,3.60
2018,10,16,03,47,3.50
2018,10,16,03,48,3.50
2018,10,16,03,49,3.50
2018,10,16,03,50,3.50
2018,10,16,03,51,3.50
2018,10,16,03,52,3.50
2018,10,16,03,53,3.50
2018,10,16,03,54,3.40
2018,10,16,03,55,3.40
2018,10,16,03,56,3.40
2018,10,16,03,57,3.40
2018,10,16,03,58,3.40
2018,10,16,03,59,3.40
2018,10,16,04,00,3.50
2018,10,16,04,01,3.60
2018,10,16,04,02,3.60
2018,10,16,04,03,3.60
2018,10,16,04,04,3.70
2018,10,16,04,05,3.70
2018,10,16,04,06,3.70
2018,10,16,04,07,3.70
2018,10,16,04,08,3.70
2018,10,16,04,09,3.80
2018,10,16,04,10,3.80
2018,10,16,04,11,3.80
2018,10,16,04,12,3.80
2018,10,16,04,13,3.80
2018,10,16,04,14,3.80
2018,10,16,04,15,3.80
2018,10,16,04,16,3.80
2018,10,16,04,17,3.80
2018,10,16,04,18,3.80
2018,10,16,04,19,3.80
2018,10,16,04,20,3.80
2018,10,16,04,21,3.80
2018,10,16,04,22,3.80
2018,10,16,04,23,3.80
2018,10,16,04,24,3.80
2018,10,16,04,25,3.80
2018,10,16,04,26,3.80
2018,10,16,04,27,3.70
2018,10,16,04,28,3.70
2018,10,16,04,29,3.70
2018,10,16,04,30,3.70
2018,10,16,04,31,3.70
2018,10,16,04,32,3.70
2018,10,16,04,33,3.70
2018,10,16,04,34,3.70
2018,10,16,04,35,3.70
2018,10,16,04,36,3.70
2018,10,16,04,37,3.70
2018,10,16,04,38,3.70
2018,10,16,04,39,3.70
2018,10,16,04,40,3.70
2018,10,16,04,41,3.80
2018,10,16,04,42,3.80
2018,10,16,04,43,3.80
2018,10,16,04,44,3.80
2018,10,16,04,45,3.80
2018,10,16,04,46,3.80
2018,10,16,04,47,3.70
2018,10,16,04,48,3.70
2018,10,16,04,49,3.70
2018,10,16,04,50,3.60
2018,10,16,04,51,3.60
2018,10,16,04,52,3.60
2018,10,16,04,53,3.60
2018,10,16,04,54,3.50
2018,10,16,04,55,3.50
2018,10,16,04,56,3.40
2018,10,16,04,57,3.40
2018,10,16,04,58,3.40
2018,10,16,04,59,3.40
2018,10,16,05,00,3.40
2018,10,16,05,01,3.40
2018,10,16,05,02,3.40
2018,10,16,05,03,3.40
2018,10,16,05,04,3.40
2018,10,16,05,05,3.40
2018,10,16,05,06,3.40
2018,10,16,05,07,3.40
2018,10,16,05,08,3.40
2018,10,16,05,09,3.40
2018,10,16,05,10,3.40
2018,10,16,05,11,3.40
2018,10,16,05,12,3.40
2018,10,16,05,13,3.30
2018,10,16,05,14,3.30
2018,10,16,05,15,3.30
2018,10,16,05,16,3.20
2018,10,16,05,17,3.20
2018,10,16,05,18,3.20
2018,10,16,05,19,3.20
2018,10,16,05,20,3.20
2018,10,16,05,21,3.20
2018,10,16,05,22,3.20
2018,10,16,05,23,3.20
2018,10,16,05,24,3.20
2018,10,16,05,25,3.20
2018,10,16,05,26,3.20
2018,10,16,05,27,3.20
2018,10,16,05,28,3.20
2018,10,16,05,29,3.20
2018,10,16,05,30,3.30
2018,10,16,05,31,3.30
2018,10,16,05,32,3.30
2018,10,16,05,33,3.30
2018,10,16,05,34,3.40
2018,10,16,05,35,3.40
2018,10,16,05,36,3.40
2018,10,16,05,37,3.40
2018,10,16,05,38,3.40
2018,10,16,05,39,3.40
2018,10,16,05,40,3.40
2018,10,16,05,41,3.50
2018,10,16,05,42,3.50
2018,10,16,05,43,3.50
2018,10,16,05,44,3.50
2018,10,16,05,45,3.40
2018,10,16,05,46,3.40
2018,10,16,05,47,3.40
2018,10,16,05,48,3.40
2018,10,16,05,49,3.40
2018,10,16,05,50,3.30
2018,10,16,05,51,3.30
2018,10,16,05,52,3.30
2018,10,16,05,53,3.20
2018,10,16,05,54,3.20
2018,10,16,05,55,3.20
2018,10,16,05,56,3.20
2018,10,16,05,57,3.20
2018,10,16,05,58,3.10
2018,10,16,05,59,3.10
2018,10,16,06,00,3.10
2018,10,16,06,01,3.10
2018,10,16,06,02,3.10
2018,10,16,06,03,3.10
2018,10,16,06,04,3.10
2018,10,16,06,05,3.10
2018,10,16,06,06,3.00
2018,10,16,06,07,3.00
2018,10,16,06,08,2.90
2018,10,16,06,09,2.90
2018,10,16,06,10,2.90
2018,10,16,06,11,2.90
2018,10,16,06,12,2.90
2018,10,16,06,13,2.90
2018,10,16,06,14,2.90
2018,10,16,06,15,2.90
2018,10,16,06,16,2.90
2018,10,16,06,17,2.90
2018,10,16,06,18,2.90
2018,10,16,06,19,2.90
2018,10,16,06,20,2.90
2018,10,16,06,21,2.90
2018,10,16,06,22,2.80
2018,10,16,06,23,2.80
2018,10,16,06,24,2.80
2018,10,16,06,25,2.80
2018,10,16,06,26,2.70
2018,10,16,06,27,2.70
2018,10,16,06,28,2.70
2018,10,16,06,29,2.70
2018,10,16,06,30,2.70
2018,10,16,06,31,2.60
2018,10,16,06,32,2.60
2018,10,16,06,33,2.60
2018,10,16,06,34,2.70
2018,10,16,06,35,2.70
2018,10,16,06,36,2.70
2018,10,16,06,37,2.70
2018,10,16,06,38,2.70
2018,10,16,06,39,2.60
2018,10,16,06,40,2.60
2018,10,16,06,41,2.60
2018,10,16,06,42,2.60
2018,10,16,06,43,2.60
2018,10,16,06,44,2.60
2018,10,16,06,45,2.60
2018,10,16,06,46,2.60
2018,10,16,06,47,2.60
2018,10,16,06,48,2.60
2018,10,16,06,49,2.60
2018,10,16,06,50,2.70
2018,10,16,06,51,2.70
2018,10,16,06,52,2.80
2018,10,16,06,53,2.90
2018,10,16,06,54,2.90
2018,10,16,06,55,2.90
2018,10,16,06,56,2.90
2018,10,16,06,57,2.90
2018,10,16,06,58,2.90
2018,10,16,06,59,2.90
2018,10,16,07,00,2.90
2018,10,16,07,01,2.90
2018,10,16,07,02,2.80
2018,10,16,07,03,2.80
2018,10,16,07,04,2.80
2018,10,16,07,05,2.70
2018,10,16,07,06,2.70
2018,10,16,07,07,2.70
2018,10,16,07,08,2.70
2018,10,16,07,09,2.70
2018,10,16,07,10,2.70
2018,10,16,07,11,2.70
2018,10,16,07,12,2.60
2018,10,16,07,13,2.60
2018,10,16,07,14,2.60
2018,10,16,07,15,2.60
2018,10,16,07,16,2.60
2018,10,16,07,17,2.60
2018,10,16,07,18,2.60
2018,10,16,07,19,2.60
2018,10,16,07,20,2.60
2018,10,16,07,21,2.60
2018,10,16,07,22,2.60
2018,10,16,07,23,2.60
2018,10,16,07,24,2.60
2018,10,16,07,25,2.60
2018,10,16,07,26,2.60
2018,10,16,07,27,2.70
2018,10,16,07,28,2.70
2018,10,16,07,29,2.70
2018,10,16,07,30,2.70
2018,10,16,07,31,2.70
2018,10,16,07,32,2.70
2018,10,16,07,33,2.70
2018,10,16,07,34,2.70
2018,10,16,07,35,2.70
2018,10,16,07,36,2.70
2018,10,16,07,37,2.70
2018,10,16,07,38,2.70
2018,10,16,07,39,2.70
2018,10,16,07,40,2.70
2018,10,16,07,41,2.70
2018,10,16,07,42,2.70
2018,10,16,07,43,2.70
2018,10,16,07,44,2.70
2018,10,16,07,45,2.70
2018,10,16,07,46,2.70
2018,10,16,07,47,2.70
2018,10,16,07,48,2.70
2018,10,16,07,49,2.70
2018,10,16,07,50,2.70
2018,10,16,07,51,2.70
2018,10,16,07,52,2.70
2018,10,16,07,53,2.70
2018,10,16,07,54,2.80
2018,10,16,07,55,2.70
2018,10,16,07,56,2.70
2018,10,16,07,57,2.70
2018,10,16,07,58,2.70
2018,10,16,07,59,2.70
2018,10,16,08,00,2.60
2018,10,16,08,01,2.60
2018,10,16,08,02,2.60
2018,10,16,08,03,2.60
2018,10,16,08,04,2.60
2018,10,16,08,05,2.60
2018,10,16,08,06,2.70
2018,10,16,08,07,2.70
2018,10,16,08,08,2.70
2018,10,16,08,09,2.70
2018,10,16,08,10,2.80
2018,10,16,08,11,2.80
2018,10,16,08,12,2.80
2018,10,16,08,13,2.80
2018,10,16,08,14,2.80
2018,10,16,08,15,2.80
2018,10,16,08,16,2.80
2018,10,16,08,17,2.90
2018,10,16,08,18,2.90
2018,10,16,08,19,2.90
2018,10,16,08,20,2.90
2018,10,16,08,21,2.90
2018,10,16,08,22,2.90
2018,10,16,08,23,2.90
2018,10,16,08,24,2.90
2018,10,16,08,25,2.90
2018,10,16,08,26,2.90
2018,10,16,08,27,3.00
2018,10,16,08,28,3.00
2018,10,16,08,29,3.00
2018,10,16,08,30,3.00
2018,10,16,08,31,3.00
2018,10,16,08,32,3.10
2018,10,16,08,33,3.10
2018,10,16,08,34,3.10
2018,10,16,08,35,3.20
2018,10,16,08,36,3.20
2018,10,16,08,37,3.20
2018,10,16,08,38,3.30
2018,10,16,08,39,3.30
2018,10,16,08,40,3.30
2018,10,16,08,41,3.40
2018,10,16,08,42,3.50
2018,10,16,08,43,3.50
2018,10,16,08,44,3.60
2018,10,16,08,45,3.70
2018,10,16,08,46,3.70
2018,10,16,08,47,3.80
2018,10,16,08,48,3.80
2018,10,16,08,49,3.90
2018,10,16,08,50,3.90
2018,10,16,08,51,4.00
2018,10,16,08,52,4.00
2018,10,16,08,53,4.10
2018,10,16,08,54,4.20
2018,10,16,08,55,4.30
2018,10,16,08,56,4.40
2018,10,16,08,57,4.50
2018,10,16,08,58,4.60
2018,10,16,08,59,4.70
2018,10,16,09,00,4.80
2018,10,16,09,01,4.80
2018,10,16,09,02,4.90
2018,10,16,09,03,4.90
2018,10,16,09,04,4.90
2018,10,16,09,05,5.00
2018,10,16,09,06,5.10
2018,10,16,09,07,5.10
2018,10,16,09,08,5.20
2018,10,16,09,09,5.20
2018,10,16,09,10,5.30
2018,10,16,09,11,5.30
2018,10,16,09,12,5.30
2018,10,16,09,13,5.40
2018,10,16,09,14,5.40
2018,10,16,09,15,5.40
2018,10,16,09,16,5.50
2018,10,16,09,17,5.50
2018,10,16,09,18,5.60
2018,10,16,09,19,5.70
2018,10,16,09,20,5.80
2018,10,16,09,21,5.90
2018,10,16,09,22,6.00
2018,10,16,09,23,6.10
2018,10,16,09,24,6.10
2018,10,16,09,25,6.20
2018,10,16,09,26,6.20
2018,10,16,09,27,6.20
2018,10,16,09,28,6.20
2018,10,16,09,29,6.20
2018,10,16,09,30,6.20
2018,10,16,09,31,6.30
2018,10,16,09,32,6.30
2018,10,16,09,33,6.40
2018,10,16,09,34,6.50
2018,10,16,09,35,6.50
2018,10,16,09,36,6.60
2018,10,16,09,37,6.60
2018,10,16,09,38,6.70
2018,10,16,09,39,6.80
2018,10,16,09,40,6.90
2018,10,16,09,41,7.00
2018,10,16,09,42,7.00
2018,10,16,09,43,7.10
2018,10,16,09,44,7.10
2018,10,16,09,45,7.20
2018,10,16,09,46,7.30
2018,10,16,09,47,7.30
2018,10,16,09,48,7.40
2018,10,16,09,49,7.40
2018,10,16,09,50,7.40
2018,10,16,09,51,7.50
2018,10,16,09,52,7.50
2018,10,16,09,53,7.60
2018,10,16,09,54,7.70
2018,10,16,09,55,7.70
2018,10,16,09,56,7.80
2018,10,16,09,57,7.80
2018,10,16,09,58,7.90
2018,10,16,09,59,8.00
2018,10,16,10,00,8.00
2018,10,16,10,01,8.10
2018,10,16,10,02,8.10
2018,10,16,10,03,8.10
2018,10,16,10,04,8.20
2018,10,16,10,05,8.20
2018,10,16,10,06,8.30
2018,10,16,10,07,8.30
2018,10,16,10,08,8.40
2018,10,16,10,09,8.50
2018,10,16,10,10,8.50
2018,10,16,10,11,8.60
2018,10,16,10,12,8.70
2018,10,16,10,13,8.70
2018,10,16,10,14,8.80
2018,10,16,10,15,8.80
2018,10,16,10,16,8.90
2018,10,16,10,17,9.00
2018,10,16,10,18,9.10
2018,10,16,10,19,9.10
2018,10,16,10,20,9.20
2018,10,16,10,21,9.30
2018,10,16,10,22,9.30
2018,10,16,10,23,9.40
2018,10,16,10,24,9.50
2018,10,16,10,25,9.50
2018,10,16,10,26,9.60
2018,10,16,10,27,9.60
2018,10,16,10,28,9.70
2018,10,16,10,29,9.80
2018,10,16,10,30,9.90
2018,10,16,10,31,9.90
2018,10,16,10,32,10.00
2018,10,16,10,33,10.10
2018,10,16,10,34,10.20
2018,10,16,10,35,10.30
2018,10,16,10,36,10.40
2018,10,16,10,37,10.50
2018,10,16,10,38,10.60
2018,10,16,10,39,10.70
2018,10,16,10,40,10.80
2018,10,16,10,41,10.90
2018,10,16,10,42,11.00
2018,10,16,10,43,11.10
2018,10,16,10,44,11.20
2018,10,16,10,45,11.30
2018,10,16,10,46,11.40
2018,10,16,10,47,11.50
2018,10,16,10,48,11.60
2018,10,16,10,49,11.70
2018,10,16,10,50,11.80
2018,10,16,10,51,11.90
2018,10,16,10,52,11.90
2018,10,16,10,53,12.00
2018,10,16,10,54,12.10
2018,10,16,10,55,12.10
2018,10,16,10,56,12.20
2018,10,16,10,57,12.20
2018,10,16,10,58,12.30
2018,10,16,10,59,12.40
2018,10,16,11,00,12.40
2018,10,16,11,01,12.50
2018,10,16,11,02,12.60
2018,10,16,11,03,12.70
2018,10,16,11,04,12.70
2018,10,16,11,05,12.80
2018,10,16,11,06,12.90
2018,10,16,11,07,13.00
2018,10,16,11,08,13.10
2018,10,16,11,09,13.20
2018,10,16,11,10,13.30
2018,10,16,11,11,13.40
2018,10,16,11,12,13.40
2018,10,16,11,13,13.50
2018,10,16,11,14,13.60
2018,10,16,11,15,13.70
2018,10,16,11,16,13.80
2018,10,16,11,17,13.90
2018,10,16,11,18,14.00
2018,10,16,11,19,14.10
2018,10,16,11,20,14.20
2018,10,16,11,21,14.30
2018,10,16,11,22,14.40
2018,10,16,11,23,14.50
2018,10,16,11,24,14.60
2018,10,16,11,25,14.70
2018,10,16,11,26,14.80
2018,10,16,11,27,14.80
2018,10,16,11,28,14.90
2018,10,16,11,29,15.00
2018,10,16,11,30,15.10
2018,10,16,11,31,15.20
2018,10,16,11,32,15.30
2018,10,16,11,33,15.40
2018,10,16,11,34,15.50
2018,10,16,11,35,15.60
2018,10,16,11,36,15.70
2018,10,16,11,37,15.80
2018,10,16,11,38,15.90
2018,10,16,11,39,16.00
2018,10,16,11,40,16.10
2018,10,16,11,41,16.20
2018,10,16,11,42,16.30
2018,10,16,11,43,16.30
2018,10,16,11,44,16.40
2018,10,16,11,45,16.50
2018,10,16,11,46,16.50
2018,10,16,11,47,16.60
2018,10,16,11,48,16.60
2018,10,16,11,49,16.70
2018,10,16,11,50,16.70
2018,10,16,11,51,16.70
2018,10,16,11,52,16.60
2018,10,16,11,53,16.60
2018,10,16,11,54,16.60
2018,10,16,11,55,16.70
2018,10,16,11,56,16.70
2018,10,16,11,57,16.80
2018,10,16,11,58,16.80
2018,10,16,11,59,16.90
2018,10,16,12,00,16.90
2018,10,16,12,01,17.00
2018,10,16,12,02,17.10
2018,10,16,12,03,17.10
2018,10,16,12,04,17.20
2018,10,16,12,05,17.30
2018,10,16,12,06,17.40
2018,10,16,12,07,17.40
2018,10,16,12,08,17.40
2018,10,16,12,09,17.40
2018,10,16,12,10,17.40
2018,10,16,12,11,17.40
2018,10,16,12,12,17.50
2018,10,16,12,13,17.50
2018,10,16,12,14,17.60
2018,10,16,12,15,17.70
2018,10,16,12,16,17.70
2018,10,16,12,17,17.80
2018,10,16,12,18,17.80
2018,10,16,12,19,17.80
2018,10,16,12,20,17.80
2018,10,16,12,21,17.90
2018,10,16,12,22,17.90
2018,10,16,12,23,18.00
2018,10,16,12,24,18.00
2018,10,16,12,25,18.10
2018,10,16,12,26,18.10
2018,10,16,12,27,18.20
2018,10,16,12,28,18.20
2018,10,16,12,29,18.30
2018,10,16,12,30,18.40
2018,10,16,12,31,18.50
2018,10,16,12,32,18.60
2018,10,16,12,33,18.70
2018,10,16,12,34,18.80
2018,10,16,12,35,18.90
2018,10,16,12,36,19.00
2018,10,16,12,37,19.00
2018,10,16,12,38,19.10
2018,10,16,12,39,19.20
2018,10,16,12,40,19.30
2018,10,16,12,41,19.30
2018,10,16,12,42,19.40
2018,10,16,12,43,19.50
2018,10,16,12,44,19.60
2018,10,16,12,45,19.70
2018,10,16,12,46,19.80
2018,10,16,12,47,19.80
2018,10,16,12,48,19.80
2018,10,16,12,49,19.70
2018,10,16,12,50,19.70
2018,10,16,12,51,19.70
2018,10,16,12,52,19.70
2018,10,16,12,53,19.70
2018,10,16,12,54,19.70
2018,10,16,12,55,19.70
2018,10,16,12,56,19.70
2018,10,16,12,57,19.70
2018,10,16,12,58,19.70
2018,10,16,12,59,19.60
2018,10,16,13,00,19.60
2018,10,16,13,01,19.60
2018,10,16,13,02,19.60
2018,10,16,13,03,19.50
2018,10,16,13,04,19.50
2018,10,16,13,05,19.60
2018,10,16,13,06,19.60
2018,10,16,13,07,19.60
2018,10,16,13,08,19.70
2018,10,16,13,09,19.80
2018,10,16,13,10,20.00
2018,10,16,13,11,20.10
2018,10,16,13,12,20.20
2018,10,16,13,13,20.20
2018,10,16,13,14,20.20
2018,10,16,13,15,20.30
2018,10,16,13,16,20.30
2018,10,16,13,17,20.30
2018,10,16,13,18,20.40
2018,10,16,13,19,20.50
2018,10,16,13,20,20.50
2018,10,16,13,21,20.70
2018,10,16,13,22,20.70
2018,10,16,13,23,20.80
2018,10,16,13,24,20.80
2018,10,16,13,25,20.80
2018,10,16,13,26,20.80
2018,10,16,13,27,20.90
2018,10,16,13,28,20.90
2018,10,16,13,29,21.00
2018,10,16,13,30,21.00
2018,10,16,13,31,21.10
2018,10,16,13,32,21.10
2018,10,16,13,33,21.10
2018,10,16,13,34,21.20
2018,10,16,13,35,21.20
2018,10,16,13,36,21.20
2018,10,16,13,37,21.20
2018,10,16,13,38,21.30
2018,10,16,13,39,21.30
2018,10,16,13,40,21.40
2018,10,16,13,41,21.40
2018,10,16,13,42,21.50
2018,10,16,13,43,21.60
2018,10,16,13,44,21.70
2018,10,16,13,45,21.70
2018,10,16,13,46,21.80
2018,10,16,13,47,21.80
2018,10,16,13,48,21.80
2018,10,16,13,49,21.90
2018,10,16,13,50,21.90
2018,10,16,13,51,21.90
2018,10,16,13,52,21.90
2018,10,16,13,53,21.90
2018,10,16,13,54,22.00
2018,10,16,13,55,22.00
2018,10,16,13,56,22.00
2018,10,16,13,57,21.90
2018,10,16,13,58,21.90
2018,10,16,13,59,21.80
2018,10,16,14,00,21.80
2018,10,16,14,01,21.70
2018,10,16,14,02,21.70
2018,10,16,14,03,21.70
2018,10,16,14,04,21.60
2018,10,16,14,05,21.60
2018,10,16,14,06,21.60
2018,10,16,14,07,21.60
2018,10,16,14,08,21.60
2018,10,16,14,09,21.60
2018,10,16,14,10,21.70
2018,10,16,14,11,21.70
2018,10,16,14,12,21.80
2018,10,16,14,13,22.00
2018,10,16,14,14,22.10
2018,10,16,14,15,22.10
2018,10,16,14,16,22.20
2018,10,16,14,17,22.30
2018,10,16,14,18,22.40
2018,10,16,14,19,22.50
2018,10,16,14,20,22.60
2018,10,16,14,21,22.70
2018,10,16,14,22,22.80
2018,10,16,14,23,22.80
2018,10,16,14,24,22.90
2018,10,16,14,25,22.90
2018,10,16,14,26,23.00
2018,10,16,14,27,23.10
2018,10,16,14,28,23.10
2018,10,16,14,29,23.20
2018,10,16,14,30,23.20
2018,10,16,14,31,23.30
2018,10,16,14,32,23.30
2018,10,16,14,33,23.40
2018,10,16,14,34,23.40
2018,10,16,14,35,23.50
2018,10,16,14,36,23.50
2018,10,16,14,37,23.50
2018,10,16,14,38,23.40
2018,10,16,14,39,23.40
2018,10,16,14,40,23.40
2018,10,16,14,41,23.30
2018,10,16,14,42,23.30
2018,10,16,14,43,23.20
2018,10,16,14,44,23.20
2018,10,16,14,45,23.10
2018,10,16,14,46,23.10
2018,10,16,14,47,23.00
2018,10,16,14,48,22.90
2018,10,16,14,49,22.80
2018,10,16,14,50,22.80
2018,10,16,14,51,22.70
2018,10,16,14,52,22.70
2018,10,16,14,53,22.70
2018,10,16,14,54,22.70
2018,10,16,14,55,22.70
2018,10,16,14,56,22.70
2018,10,16,14,57,22.70
2018,10,16,14,58,22.60
2018,10,16,14,59,22.60
2018,10,16,15,00,22.50
2018,10,16,15,01,22.50
2018,10,16,15,02,22.40
2018,10,16,15,03,22.30
2018,10,16,15,04,22.30
2018,10,16,15,05,22.30
2018,10,16,15,06,22.20
2018,10,16,15,07,22.20
2018,10,16,15,08,22.10
2018,10,16,15,09,22.00
2018,10,16,15,10,22.00
2018,10,16,15,11,22.00
2018,10,16,15,12,22.00
2018,10,16,15,13,22.00
2018,10,16,15,14,21.90
2018,10,16,15,15,21.90
2018,10,16,15,16,21.90
2018,10,16,15,17,21.90
2018,10,16,15,18,21.80
2018,10,16,15,19,21.80
2018,10,16,15,20,21.90
2018,10,16,15,21,21.90
2018,10,16,15,22,21.90
2018,10,16,15,23,21.80
2018,10,16,15,24,21.80
2018,10,16,15,25,21.80
2018,10,16,15,26,21.80
2018,10,16,15,27,21.80
2018,10,16,15,28,21.80
2018,10,16,15,29,21.80
2018,10,16,15,30,21.90
2018,10,16,15,31,21.90
2018,10,16,15,32,22.00
2018,10,16,15,33,22.10
2018,10,16,15,34,22.10
2018,10,16,15,35,22.10
2018,10,16,15,36,22.10
2018,10,16,15,37,22.10
2018,10,16,15,38,22.10
2018,10,16,15,39,22.10
2018,10,16,15,40,22.10
2018,10,16,15,41,22.10
2018,10,16,15,42,22.10
2018,10,16,15,43,22.00
2018,10,16,15,44,22.00
2018,10,16,15,45,21.90
2018,10,16,15,46,21.90
2018,10,16,15,47,21.90
2018,10,16,15,48,21.90
2018,10,16,15,49,21.90
2018,10,16,15,50,21.90
2018,10,16,15,51,21.90
2018,10,16,15,52,21.80
2018,10,16,15,53,21.80
2018,10,16,15,54,21.80
2018,10,16,15,55,21.80
2018,10,16,15,56,21.80
2018,10,16,15,57,21.80
2018,10,16,15,58,21.80
2018,10,16,15,59,21.80
2018,10,16,16,00,21.80
2018,10,16,16,01,21.80
2018,10,16,16,02,21.70
2018,10,16,16,03,21.70
2018,10,16,16,04,21.70
2018,10,16,16,05,21.70
2018,10,16,16,06,21.70
2018,10,16,16,07,21.80
2018,10,16,16,08,21.80
2018,10,16,16,09,21.80
2018,10,16,16,10,21.80
2018,10,16,16,11,21.80
2018,10,16,16,12,21.80
2018,10,16,16,13,21.80
2018,10,16,16,14,21.80
2018,10,16,16,15,21.80
2018,10,16,16,16,21.80
2018,10,16,16,17,21.80
2018,10,16,16,18,21.80
2018,10,16,16,19,21.70
2018,10,16,16,20,21.70
2018,10,16,16,21,21.70
2018,10,16,16,22,21.60
2018,10,16,16,23,21.60
2018,10,16,16,24,21.60
2018,10,16,16,25,21.60
2018,10,16,16,26,21.60
2018,10,16,16,27,21.60
2018,10,16,16,28,21.60
2018,10,16,16,29,21.60
2018,10,16,16,30,21.60
2018,10,16,16,31,21.50
2018,10,16,16,32,21.50
2018,10,16,16,33,21.50
2018,10,16,16,34,21.40
2018,10,16,16,35,21.40
2018,10,16,16,36,21.40
2018,10,16,16,37,21.30
2018,10,16,16,38,21.30
2018,10,16,16,39,21.30
2018,10,16,16,40,21.30
2018,10,16,16,41,21.30
2018,10,16,16,42,21.30
2018,10,16,16,43,21.30
2018,10,16,16,44,21.30
2018,10,16,16,45,21.30
2018,10,16,16,46,21.30
2018,10,16,16,47,21.30
2018,10,16,16,48,21.20
2018,10,16,16,49,21.20
2018,10,16,16,50,21.20
2018,10,16,16,51,21.20
2018,10,16,16,52,21.10
2018,10,16,16,53,21.10
2018,10,16,16,54,21.10
2018,10,16,16,55,21.10
2018,10,16,16,56,21.10
2018,10,16,16,57,21.10
2018,10,16,16,58,21.10
2018,10,16,16,59,21.10
2018,10,16,17,00,21.10
2018,10,16,17,01,21.10
2018,10,16,17,02,21.10
2018,10,16,17,03,21.00
2018,10,16,17,04,21.10
2018,10,16,17,05,21.00
2018,10,16,17,06,21.00
2018,10,16,17,07,21.00
2018,10,16,17,08,21.00
2018,10,16,17,09,21.00
2018,10,16,17,10,21.00
2018,10,16,17,11,21.00
2018,10,16,17,12,21.00
2018,10,16,17,13,21.00
2018,10,16,17,14,21.00
2018,10,16,17,15,21.00
2018,10,16,17,16,21.00
2018,10,16,17,17,21.00
2018,10,16,17,18,20.90
2018,10,16,17,19,20.90
2018,10,16,17,20,20.90
2018,10,16,17,21,20.80
2018,10,16,17,22,20.80
2018,10,16,17,23,20.80
2018,10,16,17,24,20.70
2018,10,16,17,25,20.70
2018,10,16,17,26,20.70
2018,10,16,17,27,20.60
2018,10,16,17,28,20.60
2018,10,16,17,29,20.60
2018,10,16,17,30,20.50
2018,10,16,17,31,20.50
2018,10,16,17,32,20.50
2018,10,16,17,33,20.50
2018,10,16,17,34,20.50
2018,10,16,17,35,20.50
2018,10,16,17,36,20.50
2018,10,16,17,37,20.60
2018,10,16,17,38,20.60
2018,10,16,17,39,20.60
2018,10,16,17,40,20.60
2018,10,16,17,41,20.60
2018,10,16,17,42,20.70
2018,10,16,17,43,20.70
2018,10,16,17,44,20.70
2018,10,16,17,45,20.70
2018,10,16,17,46,20.70